This is the latest recevied weather packets stored in our database for station/object DB0WUN-13. If no packets are shown the sender has not sent any weather packets the latest 1 day(s).
| Time | Temp. | Humidity | Pressure | Rain* | Wind** | Luminosity | Snow |
|---|---|---|---|---|---|---|---|
| 1777962610 | 13.33° C | 82% | 1010.6 hPa | 0 mm | 0.45 m/s, 6° | 153 W/m² | - |
| 1777962548 | 13.33° C | 81% | 1010.6 hPa | 0 mm | 0.45 m/s, 6° | 148 W/m² | - |
| 1777962488 | 13.33° C | 82% | 1010.6 hPa | 0 mm | 0.45 m/s, 6° | 148 W/m² | - |
| 1777962427 | 13.33° C | 82% | 1010.6 hPa | 0 mm | 0.45 m/s, 6° | 146 W/m² | - |
| 1777962366 | 13.33° C | 82% | 1010.6 hPa | 0 mm | 0.45 m/s, 329° | 149 W/m² | - |
| 1777962314 | 13.33° C | 82% | 1010.6 hPa | 0 mm | 0.45 m/s, 329° | 155 W/m² | - |
| 1777962245 | 13.33° C | 82% | 1010.7 hPa | 0 mm | 0.45 m/s, 338° | 162 W/m² | - |
| 1777962188 | 13.33° C | 82% | 1010.6 hPa | 0 mm | 0.45 m/s, 42° | 163 W/m² | - |
| 1777962126 | 13.33° C | 82% | 1010.7 hPa | 0 mm | 0.45 m/s, 67° | 162 W/m² | - |
| 1777962064 | 13.33° C | 83% | 1010.6 hPa | 0 mm | 0.45 m/s, 67° | 162 W/m² | - |
| 1777962005 | 13.33° C | 83% | 1010.6 hPa | 0 mm | 0.45 m/s, 40° | 160 W/m² | - |
| 1777961945 | 13.33° C | 83% | 1010.6 hPa | 0 mm | 0.45 m/s, 326° | 155 W/m² | - |
| 1777961887 | 13.33° C | 83% | 1010.6 hPa | 0 mm | 0.45 m/s, 326° | 142 W/m² | - |
| 1777961823 | 13.33° C | 82% | 1010.7 hPa | 0 mm | 0.45 m/s, 325° | 135 W/m² | - |
| 1777961764 | 13.33° C | 83% | 1010.7 hPa | 0 mm | 0 m/s | 132 W/m² | - |
| 1777961699 | 13.33° C | 83% | 1010.7 hPa | 0 mm | 0 m/s | 128 W/m² | - |
| 1777961666 | 13.33° C | 82% | 1010.7 hPa | 0 mm | 0 m/s | 123 W/m² | - |
| 1777961637 | 13.33° C | 83% | 1010.7 hPa | 0 mm | 0 m/s | 121 W/m² | - |
| 1777961598 | 13.33° C | 83% | 1010.7 hPa | 0 mm | 0 m/s | 121 W/m² | - |
| 1777961558 | 13.33° C | 82% | 1010.7 hPa | 0 mm | 0.45 m/s, 21° | 125 W/m² | - |
| 1777961516 | 13.33° C | 82% | 1010.6 hPa | 0 mm | 0.45 m/s, 21° | 128 W/m² | - |
| 1777961479 | 13.33° C | 82% | 1010.7 hPa | 0 mm | 0.45 m/s, 21° | 139 W/m² | - |
| 1777961445 | 13.33° C | 82% | 1010.7 hPa | 0 mm | 0.45 m/s, 14° | 142 W/m² | - |
| 1777961409 | 13.33° C | 83% | 1010.7 hPa | 0 mm | 0.45 m/s, 338° | 148 W/m² | - |
| 1777961244 | 13.33° C | 83% | 1010.7 hPa | 0 mm | 0.45 m/s, 337° | 148 W/m² | - |
* Rain latest hour (hover to see other rain measurements)
** Current wind speed in m/s (hover to see current wind gust speed)